{"data":{"norad_id":65797,"epoch":"2026-05-25T02:43:17.757408Z","epoch_age_seconds":65390,"freshness":"FRESH","line1":"1 65797U 25218G   26145.11339997  .00002966  00000+0  20948-3 0  9990","line2":"2 65797  97.4502   7.9721 0001360 114.8765 245.2604 15.05665991 36471","mean_motion":15.05665991,"eccentricity":0.000136,"inclination_deg":97.4502,"raan_deg":7.9721,"arg_perigee_deg":114.8765,"mean_anomaly_deg":245.2604,"bstar":0.00020948,"rev_number":3647,"period_min":95.638741168857,"perigee_km":548.51995018801,"apogee_km":550.4042571442,"semimajor_km":6927.5991036661,"source":"CELESTRAK","updated_at":"2026-05-25T13:38:20.937060Z"}}